owner,sensor,date,latitude,longitude,vertical_datum,mass_concentration_of_oxygen_in_sea_water,qcFlag 
DISL,ioos:station:DISL:BSCA:1,2013-02-01T00:00:00Z,30.3288,-87.8293,1.835,9.84,1111122 
DISL,ioos:station:DISL:BSCA:1,2013-02-01T00:30:00Z,30.3288,-87.8293,1.826,9.29,1111122 
DISL,ioos:station:DISL:BSCA:1,2013-02-01T01:00:00Z,30.3288,-87.8293,1.777,9.18,1111122 
DISL,ioos:station:DISL:BSCA:1,2013-02-01T01:30:00Z,30.3288,-87.8293,1.764,9.37,1111122 
DISL,ioos:station:DISL:BSCA:1,2013-02-01T02:00:00Z,30.3288,-87.8293,1.763,9.48,1111122 
DISL,ioos:station:DISL:BSCA:1,2013-02-01T02:30:00Z,30.3288,-87.8293,1.773,9.24,1111122 
DISL,ioos:station:DISL:BSCA:1,2013-02-01T03:00:00Z,30.3288,-87.8293,1.791,9.21,1111122 
DISL,ioos:station:DISL:BSCA:1,2013-02-01T03:30:00Z,30.3288,-87.8293,1.777,9.18,1111122 
DISL,ioos:station:DISL:BSCA:1,2013-02-01T04:00:00Z,30.3288,-87.8293,1.796,9.01,1111122 
DISL,ioos:station:DISL:BSCA:1,2013-02-01T04:30:00Z,30.3288,-87.8293,1.784,9.06,1111122 
DISL,ioos:station:DISL:BSCA:1,2013-02-01T05:00:00Z,30.3288,-87.8293,1.798,9.14,1111122 
DISL,ioos:station:DISL:BSCA:1,2013-02-01T05:30:00Z,30.3288,-87.8293,1.773,9.29,1111122 
DISL,ioos:station:DISL:BSCA:1,2013-02-01T06:00:00Z,30.3288,-87.8293,1.813,9.27,1111122 
DISL,ioos:station:DISL:BSCA:1,2013-02-01T06:30:00Z,30.3288,-87.8293,1.713,9.37,1111122 
DISL,ioos:station:DISL:BSCA:1,2013-02-01T07:00:00Z,30.3288,-87.8293,1.87,9.35,1111122 
DISL,ioos:station:DISL:BSCA:1,2013-02-01T07:30:00Z,30.3288,-87.8293,1.834,9.23,1111122 
DISL,ioos:station:DISL:BSCA:1,2013-02-01T08:00:00Z,30.3288,-87.8293,1.818,9.34,1111122 
DISL,ioos:station:DISL:BSCA:1,2013-02-01T08:30:00Z,30.3288,-87.8293,1.784,9.12,1111122 
DISL,ioos:station:DISL:BSCA:1,2013-02-01T09:00:00Z,30.3288,-87.8293,1.834,9.24,1111122 
DISL,ioos:station:DISL:BSCA:1,2013-02-01T09:30:00Z,30.3288,-87.8293,1.804,9.22,1111122 
DISL,ioos:station:DISL:BSCA:1,2013-02-01T10:00:00Z,30.3288,-87.8293,1.773,9.29,1111122 
DISL,ioos:station:DISL:BSCA:1,2013-02-01T10:30:00Z,30.3288,-87.8293,1.731,9.47,1111122 
DISL,ioos:station:DISL:BSCA:1,2013-02-01T11:00:00Z,30.3288,-87.8293,1.687,9.47,1111122 
DISL,ioos:station:DISL:BSCA:1,2013-02-01T11:30:00Z,30.3288,-87.8293,1.658,9.52,1111122 
DISL,ioos:station:DISL:BSCA:1,2013-02-01T12:00:00Z,30.3288,-87.8293,1.652,9.54,1111122 
DISL,ioos:station:DISL:BSCA:1,2013-02-01T12:30:00Z,30.3288,-87.8293,1.648,9.49,1111122 
DISL,ioos:station:DISL:BSCA:1,2013-02-01T13:00:00Z,30.3288,-87.8293,1.648,9.48,1111122 
DISL,ioos:station:DISL:BSCA:1,2013-02-01T13:30:00Z,30.3288,-87.8293,1.661,9.54,1111122 
DISL,ioos:station:DISL:BSCA:1,2013-02-01T14:00:00Z,30.3288,-87.8293,1.668,9.51,1111122 
DISL,ioos:station:DISL:BSCA:1,2013-02-01T14:30:00Z,30.3288,-87.8293,1.666,9.09,1111122 
DISL,ioos:station:DISL:BSCA:1,2013-02-01T15:00:00Z,30.3288,-87.8293,1.655,9.03,1111122 
DISL,ioos:station:DISL:BSCA:1,2013-02-01T15:30:00Z,30.3288,-87.8293,1.652,9.4,1111122 
DISL,ioos:station:DISL:BSCA:1,2013-02-01T16:00:00Z,30.3288,-87.8293,1.633,9.41,1111122 
DISL,ioos:station:DISL:BSCA:1,2013-02-01T16:30:00Z,30.3288,-87.8293,1.619,9.35,1111122 
DISL,ioos:station:DISL:BSCA:1,2013-02-01T17:00:00Z,30.3288,-87.8293,1.628,9.41,1111122 
DISL,ioos:station:DISL:BSCA:1,2013-02-01T17:30:00Z,30.3288,-87.8293,1.633,9.43,1111122 
DISL,ioos:station:DISL:BSCA:1,2013-02-01T18:00:00Z,30.3288,-87.8293,1.654,9.37,1111122 
DISL,ioos:station:DISL:BSCA:1,2013-02-01T18:30:00Z,30.3288,-87.8293,1.68,8.99,1111122 
DISL,ioos:station:DISL:BSCA:1,2013-02-01T19:00:00Z,30.3288,-87.8293,1.699,9.05,1111122 
DISL,ioos:station:DISL:BSCA:1,2013-02-01T19:30:00Z,30.3288,-87.8293,1.732,9.4,1111122 
DISL,ioos:station:DISL:BSCA:1,2013-02-01T20:00:00Z,30.3288,-87.8293,1.734,8.24,1111122 
DISL,ioos:station:DISL:BSCA:1,2013-02-01T20:30:00Z,30.3288,-87.8293,1.755,8.16,1111122 
DISL,ioos:station:DISL:BSCA:1,2013-02-01T21:00:00Z,30.3288,-87.8293,1.73,8.18,1111122 
DISL,ioos:station:DISL:BSCA:1,2013-02-01T21:30:00Z,30.3288,-87.8293,1.76,8.54,1111122 
DISL,ioos:station:DISL:BSCA:1,2013-02-01T22:00:00Z,30.3288,-87.8293,1.774,8.7,1111122 
DISL,ioos:station:DISL:BSCA:1,2013-02-01T22:30:00Z,30.3288,-87.8293,1.762,8.78,1111122 
DISL,ioos:station:DISL:BSCA:1,2013-02-01T23:00:00Z,30.3288,-87.8293,1.754,8.95,1111122 
DISL,ioos:station:DISL:BSCA:1,2013-02-01T23:30:00Z,30.3288,-87.8293,1.748,8.93,1111122 
DISL,ioos:station:DISL:BSCA:1,2013-02-02T00:00:00Z,30.3288,-87.8293,1.743,8.88,1111122 
DISL,ioos:station:DISL:BSCA:1,2013-02-02T00:30:00Z,30.3288,-87.8293,1.748,8.87,1111122 
DISL,ioos:station:DISL:BSCA:1,2013-02-02T01:00:00Z,30.3288,-87.8293,1.736,9.0,1111122 
DISL,ioos:station:DISL:BSCA:1,2013-02-02T01:30:00Z,30.3288,-87.8293,1.719,9.65,1111122 
DISL,ioos:station:DISL:BSCA:1,2013-02-02T02:00:00Z,30.3288,-87.8293,1.7,9.75,1111122 
DISL,ioos:station:DISL:BSCA:1,2013-02-02T02:30:00Z,30.3288,-87.8293,1.674,9.63,1111122 
DISL,ioos:station:DISL:BSCA:1,2013-02-02T03:00:00Z,30.3288,-87.8293,1.652,9.19,1111122 
DISL,ioos:station:DISL:BSCA:1,2013-02-02T03:30:00Z,30.3288,-87.8293,1.63,9.02,1111122 
DISL,ioos:station:DISL:BSCA:1,2013-02-02T04:00:00Z,30.3288,-87.8293,1.64,8.6,1111122 
DISL,ioos:station:DISL:BSCA:1,2013-02-02T04:30:00Z,30.3288,-87.8293,1.64,8.46,1111122 
DISL,ioos:station:DISL:BSCA:1,2013-02-02T05:00:00Z,30.3288,-87.8293,1.631,8.47,1111122 
DISL,ioos:station:DISL:BSCA:1,2013-02-02T05:30:00Z,30.3288,-87.8293,1.625,8.53,1111122 
DISL,ioos:station:DISL:BSCA:1,2013-02-02T06:00:00Z,30.3288,-87.8293,1.61,8.54,1111122 
DISL,ioos:station:DISL:BSCA:1,2013-02-02T06:30:00Z,30.3288,-87.8293,1.607,9.41,1111122 
DISL,ioos:station:DISL:BSCA:1,2013-02-02T07:00:00Z,30.3288,-87.8293,1.6,9.42,1111122 
DISL,ioos:station:DISL:BSCA:1,2013-02-02T07:30:00Z,30.3288,-87.8293,1.591,9.54,1111122 
DISL,ioos:station:DISL:BSCA:1,2013-02-02T08:00:00Z,30.3288,-87.8293,1.584,9.46,1111122 
DISL,ioos:station:DISL:BSCA:1,2013-02-02T08:30:00Z,30.3288,-87.8293,1.592,9.5,1111122 
DISL,ioos:station:DISL:BSCA:1,2013-02-02T09:00:00Z,30.3288,-87.8293,1.596,9.37,1111122 
DISL,ioos:station:DISL:BSCA:1,2013-02-02T09:30:00Z,30.3288,-87.8293,1.601,9.34,1111122 
DISL,ioos:station:DISL:BSCA:1,2013-02-02T10:00:00Z,30.3288,-87.8293,1.615,9.53,1111122 
DISL,ioos:station:DISL:BSCA:1,2013-02-02T10:30:00Z,30.3288,-87.8293,1.625,9.4,1111122 
DISL,ioos:station:DISL:BSCA:1,2013-02-02T11:00:00Z,30.3288,-87.8293,1.621,9.27,1111122 
DISL,ioos:station:DISL:BSCA:1,2013-02-02T11:30:00Z,30.3288,-87.8293,1.624,9.21,1111122 
DISL,ioos:station:DISL:BSCA:1,2013-02-02T12:00:00Z,30.3288,-87.8293,1.613,9.56,1111122 
DISL,ioos:station:DISL:BSCA:1,2013-02-02T12:30:00Z,30.3288,-87.8293,1.625,9.41,1111122 
DISL,ioos:station:DISL:BSCA:1,2013-02-02T13:00:00Z,30.3288,-87.8293,1.632,9.41,1111122 
DISL,ioos:station:DISL:BSCA:1,2013-02-02T13:30:00Z,30.3288,-87.8293,1.647,9.53,1111122 
DISL,ioos:station:DISL:BSCA:1,2013-02-02T14:00:00Z,30.3288,-87.8293,1.659,9.43,1111122 
DISL,ioos:station:DISL:BSCA:1,2013-02-02T14:30:00Z,30.3288,-87.8293,1.671,9.24,1111122 
DISL,ioos:station:DISL:BSCA:1,2013-02-02T15:00:00Z,30.3288,-87.8293,1.683,9.61,1111122 
DISL,ioos:station:DISL:BSCA:1,2013-02-02T15:30:00Z,30.3288,-87.8293,1.714,9.44,1111122 
DISL,ioos:station:DISL:BSCA:1,2013-02-02T16:00:00Z,30.3288,-87.8293,1.724,9.81,1111122 
DISL,ioos:station:DISL:BSCA:1,2013-02-02T16:30:00Z,30.3288,-87.8293,1.759,9.23,1111122 
DISL,ioos:station:DISL:BSCA:1,2013-02-02T17:00:00Z,30.3288,-87.8293,1.782,7.41,1111122 
DISL,ioos:station:DISL:BSCA:1,2013-02-02T17:30:00Z,30.3288,-87.8293,1.824,7.16,1111122 
DISL,ioos:station:DISL:BSCA:1,2013-02-02T18:00:00Z,30.3288,-87.8293,1.855,7.86,1111122 
DISL,ioos:station:DISL:BSCA:1,2013-02-02T18:30:00Z,30.3288,-87.8293,1.882,9.04,1111122 
DISL,ioos:station:DISL:BSCA:1,2013-02-02T19:00:00Z,30.3288,-87.8293,1.918,8.32,1111122 
DISL,ioos:station:DISL:BSCA:1,2013-02-02T19:30:00Z,30.3288,-87.8293,1.926,7.83,1111122 
DISL,ioos:station:DISL:BSCA:1,2013-02-02T20:00:00Z,30.3288,-87.8293,1.976,9.29,1111122 
DISL,ioos:station:DISL:BSCA:1,2013-02-02T20:30:00Z,30.3288,-87.8293,1.992,10.3,1111122 
DISL,ioos:station:DISL:BSCA:1,2013-02-02T21:00:00Z,30.3288,-87.8293,2.02,10.67,1111122 
DISL,ioos:station:DISL:BSCA:1,2013-02-02T21:30:00Z,30.3288,-87.8293,2.053,10.77,1111122 
DISL,ioos:station:DISL:BSCA:1,2013-02-02T22:00:00Z,30.3288,-87.8293,2.062,10.75,1111122 
DISL,ioos:station:DISL:BSCA:1,2013-02-02T22:30:00Z,30.3288,-87.8293,2.069,10.1,1111122 
DISL,ioos:station:DISL:BSCA:1,2013-02-02T23:00:00Z,30.3288,-87.8293,2.064,10.65,1111122 
DISL,ioos:station:DISL:BSCA:1,2013-02-02T23:30:00Z,30.3288,-87.8293,2.048,10.75,1111122 
DISL,ioos:station:DISL:BSCA:1,2013-02-03T00:00:00Z,30.3288,-87.8293,2.03,10.92,1111122 
DISL,ioos:station:DISL:BSCA:1,2013-02-03T00:30:00Z,30.3288,-87.8293,2.015,10.59,1111122 
DISL,ioos:station:DISL:BSCA:1,2013-02-03T01:00:00Z,30.3288,-87.8293,1.979,10.67,1111122 
DISL,ioos:station:DISL:BSCA:1,2013-02-03T01:30:00Z,30.3288,-87.8293,1.952,8.71,1111122 
DISL,ioos:station:DISL:BSCA:1,2013-02-03T02:00:00Z,30.3288,-87.8293,1.914,9.51,1111122 
DISL,ioos:station:DISL:BSCA:1,2013-02-03T02:30:00Z,30.3288,-87.8293,1.882,9.17,1111122 
DISL,ioos:station:DISL:BSCA:1,2013-02-03T03:00:00Z,30.3288,-87.8293,1.85,6.76,1111122 
DISL,ioos:station:DISL:BSCA:1,2013-02-03T03:30:00Z,30.3288,-87.8293,1.815,6.49,1111122 
DISL,ioos:station:DISL:BSCA:1,2013-02-03T04:00:00Z,30.3288,-87.8293,1.789,6.17,1111122 
DISL,ioos:station:DISL:BSCA:1,2013-02-03T04:30:00Z,30.3288,-87.8293,1.76,5.93,1111122 
DISL,ioos:station:DISL:BSCA:1,2013-02-03T05:00:00Z,30.3288,-87.8293,1.726,5.73,1111122 
DISL,ioos:station:DISL:BSCA:1,2013-02-03T05:30:00Z,30.3288,-87.8293,1.711,5.86,1111122 
DISL,ioos:station:DISL:BSCA:1,2013-02-03T06:00:00Z,30.3288,-87.8293,1.686,6.09,1111122 
DISL,ioos:station:DISL:BSCA:1,2013-02-03T06:30:00Z,30.3288,-87.8293,1.686,6.15,1111122 
DISL,ioos:station:DISL:BSCA:1,2013-02-03T07:00:00Z,30.3288,-87.8293,1.68,6.21,1111122 
DISL,ioos:station:DISL:BSCA:1,2013-02-03T07:30:00Z,30.3288,-87.8293,1.668,6.49,1111122 
DISL,ioos:station:DISL:BSCA:1,2013-02-03T08:00:00Z,30.3288,-87.8293,1.665,6.56,1111122 
DISL,ioos:station:DISL:BSCA:1,2013-02-03T08:30:00Z,30.3288,-87.8293,1.66,6.57,1111122 
DISL,ioos:station:DISL:BSCA:1,2013-02-03T09:00:00Z,30.3288,-87.8293,1.672,6.62,1111122 
DISL,ioos:station:DISL:BSCA:1,2013-02-03T09:30:00Z,30.3288,-87.8293,1.647,6.7,1111122 
DISL,ioos:station:DISL:BSCA:1,2013-02-03T10:00:00Z,30.3288,-87.8293,1.626,6.74,1111122 
DISL,ioos:station:DISL:BSCA:1,2013-02-03T10:30:00Z,30.3288,-87.8293,1.615,6.79,1111122 
DISL,ioos:station:DISL:BSCA:1,2013-02-03T11:00:00Z,30.3288,-87.8293,1.605,6.9,1111122 
DISL,ioos:station:DISL:BSCA:1,2013-02-03T11:30:00Z,30.3288,-87.8293,1.601,6.98,1111122 
DISL,ioos:station:DISL:BSCA:1,2013-02-03T12:00:00Z,30.3288,-87.8293,1.59,6.97,1111122 
DISL,ioos:station:DISL:BSCA:1,2013-02-03T12:30:00Z,30.3288,-87.8293,1.585,6.89,1111122 
DISL,ioos:station:DISL:BSCA:1,2013-02-03T13:00:00Z,30.3288,-87.8293,1.592,7.27,1111122 
DISL,ioos:station:DISL:BSCA:1,2013-02-03T13:30:00Z,30.3288,-87.8293,1.609,7.33,1111122 
DISL,ioos:station:DISL:BSCA:1,2013-02-03T14:00:00Z,30.3288,-87.8293,1.637,7.35,1111122 
DISL,ioos:station:DISL:BSCA:1,2013-02-03T14:30:00Z,30.3288,-87.8293,1.669,7.67,1111122 
DISL,ioos:station:DISL:BSCA:1,2013-02-03T15:00:00Z,30.3288,-87.8293,1.69,7.91,1111122 
DISL,ioos:station:DISL:BSCA:1,2013-02-03T15:30:00Z,30.3288,-87.8293,1.724,8.05,1111122 
DISL,ioos:station:DISL:BSCA:1,2013-02-03T16:00:00Z,30.3288,-87.8293,1.745,7.92,1111122 
DISL,ioos:station:DISL:BSCA:1,2013-02-03T16:30:00Z,30.3288,-87.8293,1.77,7.82,1111122 
DISL,ioos:station:DISL:BSCA:1,2013-02-03T17:00:00Z,30.3288,-87.8293,1.797,7.63,1111122 
DISL,ioos:station:DISL:BSCA:1,2013-02-03T17:30:00Z,30.3288,-87.8293,1.826,7.59,1111122 
DISL,ioos:station:DISL:BSCA:1,2013-02-03T18:00:00Z,30.3288,-87.8293,1.88,7.54,1111122 
DISL,ioos:station:DISL:BSCA:1,2013-02-03T18:30:00Z,30.3288,-87.8293,1.907,8.17,1111122 
DISL,ioos:station:DISL:BSCA:1,2013-02-03T19:00:00Z,30.3288,-87.8293,1.941,8.35,1111122 
DISL,ioos:station:DISL:BSCA:1,2013-02-03T19:30:00Z,30.3288,-87.8293,1.97,7.68,1111122 
DISL,ioos:station:DISL:BSCA:1,2013-02-03T20:00:00Z,30.3288,-87.8293,1.993,7.71,1111122 
DISL,ioos:station:DISL:BSCA:1,2013-02-03T20:30:00Z,30.3288,-87.8293,2.03,7.56,1111122 
DISL,ioos:station:DISL:BSCA:1,2013-02-03T21:00:00Z,30.3288,-87.8293,2.05,7.05,1111122 
DISL,ioos:station:DISL:BSCA:1,2013-02-03T21:30:00Z,30.3288,-87.8293,2.062,8.35,1111122 
DISL,ioos:station:DISL:BSCA:1,2013-02-03T22:00:00Z,30.3288,-87.8293,2.065,8.53,1111122 
DISL,ioos:station:DISL:BSCA:1,2013-02-03T22:30:00Z,30.3288,-87.8293,2.066,8.41,1111122 
DISL,ioos:station:DISL:BSCA:1,2013-02-03T23:00:00Z,30.3288,-87.8293,2.066,8.42,1111122 
DISL,ioos:station:DISL:BSCA:1,2013-02-03T23:30:00Z,30.3288,-87.8293,2.056,8.52,1111122 
DISL,ioos:station:DISL:BSCA:1,2013-02-04T00:00:00Z,30.3288,-87.8293,2.053,8.53,1111122 
DISL,ioos:station:DISL:BSCA:1,2013-02-04T00:30:00Z,30.3288,-87.8293,2.041,8.54,1111122 
DISL,ioos:station:DISL:BSCA:1,2013-02-04T01:00:00Z,30.3288,-87.8293,2.018,8.72,1111122 
DISL,ioos:station:DISL:BSCA:1,2013-02-04T01:30:00Z,30.3288,-87.8293,1.999,8.98,1111122 
DISL,ioos:station:DISL:BSCA:1,2013-02-04T02:00:00Z,30.3288,-87.8293,1.966,9.36,1111122 
DISL,ioos:station:DISL:BSCA:1,2013-02-04T02:30:00Z,30.3288,-87.8293,1.932,9.54,1111122 
DISL,ioos:station:DISL:BSCA:1,2013-02-04T03:00:00Z,30.3288,-87.8293,1.896,9.72,1111122 
DISL,ioos:station:DISL:BSCA:1,2013-02-04T03:30:00Z,30.3288,-87.8293,1.863,9.8,1111122 
DISL,ioos:station:DISL:BSCA:1,2013-02-04T04:00:00Z,30.3288,-87.8293,1.824,9.95,1111122 
DISL,ioos:station:DISL:BSCA:1,2013-02-04T04:30:00Z,30.3288,-87.8293,1.806,9.3,1111122 
DISL,ioos:station:DISL:BSCA:1,2013-02-04T05:00:00Z,30.3288,-87.8293,1.772,8.61,1111122 
DISL,ioos:station:DISL:BSCA:1,2013-02-04T05:30:00Z,30.3288,-87.8293,1.754,9.76,1111122 
DISL,ioos:station:DISL:BSCA:1,2013-02-04T06:00:00Z,30.3288,-87.8293,1.72,9.96,1111122 
DISL,ioos:station:DISL:BSCA:1,2013-02-04T06:30:00Z,30.3288,-87.8293,1.689,9.97,1111122 
DISL,ioos:station:DISL:BSCA:1,2013-02-04T07:00:00Z,30.3288,-87.8293,1.685,10.05,1111122 
DISL,ioos:station:DISL:BSCA:1,2013-02-04T07:30:00Z,30.3288,-87.8293,1.651,9.86,1111122 
DISL,ioos:station:DISL:BSCA:1,2013-02-04T08:00:00Z,30.3288,-87.8293,1.628,9.68,1111122 
DISL,ioos:station:DISL:BSCA:1,2013-02-04T08:30:00Z,30.3288,-87.8293,1.608,9.53,1111122 
DISL,ioos:station:DISL:BSCA:1,2013-02-04T09:00:00Z,30.3288,-87.8293,1.578,9.14,1111122 
DISL,ioos:station:DISL:BSCA:1,2013-02-04T09:30:00Z,30.3288,-87.8293,1.557,8.93,1111122 
DISL,ioos:station:DISL:BSCA:1,2013-02-04T10:00:00Z,30.3288,-87.8293,1.535,8.53,1111122 
DISL,ioos:station:DISL:BSCA:1,2013-02-04T10:30:00Z,30.3288,-87.8293,1.526,7.98,1111122 
DISL,ioos:station:DISL:BSCA:1,2013-02-04T11:00:00Z,30.3288,-87.8293,1.523,7.0,1111122 
DISL,ioos:station:DISL:BSCA:1,2013-02-04T11:30:00Z,30.3288,-87.8293,1.539,6.67,1111122 
DISL,ioos:station:DISL:BSCA:1,2013-02-04T12:00:00Z,30.3288,-87.8293,1.549,6.17,1111122 
DISL,ioos:station:DISL:BSCA:1,2013-02-04T12:30:00Z,30.3288,-87.8293,1.572,7.42,1111122 
DISL,ioos:station:DISL:BSCA:1,2013-02-04T13:00:00Z,30.3288,-87.8293,1.597,7.15,1111122 
DISL,ioos:station:DISL:BSCA:1,2013-02-04T13:30:00Z,30.3288,-87.8293,1.628,7.44,1111122 
DISL,ioos:station:DISL:BSCA:1,2013-02-04T14:00:00Z,30.3288,-87.8293,1.657,6.19,1111122 
DISL,ioos:station:DISL:BSCA:1,2013-02-04T14:30:00Z,30.3288,-87.8293,1.681,7.01,1111122 
DISL,ioos:station:DISL:BSCA:1,2013-02-04T15:00:00Z,30.3288,-87.8293,1.701,6.59,1111122 
DISL,ioos:station:DISL:BSCA:1,2013-02-04T15:30:00Z,30.3288,-87.8293,1.733,7.14,1111122 
DISL,ioos:station:DISL:BSCA:1,2013-02-04T16:00:00Z,30.3288,-87.8293,1.769,6.94,1111122 
DISL,ioos:station:DISL:BSCA:1,2013-02-04T16:30:00Z,30.3288,-87.8293,1.813,7.21,1111122 
DISL,ioos:station:DISL:BSCA:1,2013-02-04T17:00:00Z,30.3288,-87.8293,1.857,7.38,1111122 
DISL,ioos:station:DISL:BSCA:1,2013-02-04T17:30:00Z,30.3288,-87.8293,1.895,7.18,1111122 
DISL,ioos:station:DISL:BSCA:1,2013-02-04T18:00:00Z,30.3288,-87.8293,1.926,7.17,1111122 
DISL,ioos:station:DISL:BSCA:1,2013-02-04T18:30:00Z,30.3288,-87.8293,1.946,7.34,1111122 
DISL,ioos:station:DISL:BSCA:1,2013-02-04T19:00:00Z,30.3288,-87.8293,1.973,7.44,1111122 
DISL,ioos:station:DISL:BSCA:1,2013-02-04T19:30:00Z,30.3288,-87.8293,2.006,7.4,1111122 
DISL,ioos:station:DISL:BSCA:1,2013-02-04T20:00:00Z,30.3288,-87.8293,2.033,7.26,1111122 
DISL,ioos:station:DISL:BSCA:1,2013-02-04T20:30:00Z,30.3288,-87.8293,2.06,7.64,1111122 
DISL,ioos:station:DISL:BSCA:1,2013-02-04T21:00:00Z,30.3288,-87.8293,2.072,6.46,1111122 
DISL,ioos:station:DISL:BSCA:1,2013-02-04T21:30:00Z,30.3288,-87.8293,2.098,6.28,1111122 
DISL,ioos:station:DISL:BSCA:1,2013-02-04T22:00:00Z,30.3288,-87.8293,2.109,6.55,1111122 
DISL,ioos:station:DISL:BSCA:1,2013-02-04T22:30:00Z,30.3288,-87.8293,2.118,6.45,1111122 
DISL,ioos:station:DISL:BSCA:1,2013-02-04T23:00:00Z,30.3288,-87.8293,2.119,6.76,1111122 
DISL,ioos:station:DISL:BSCA:1,2013-02-04T23:30:00Z,30.3288,-87.8293,2.12,7.06,1111122 
DISL,ioos:station:DISL:BSCA:1,2013-02-05T00:00:00Z,30.3288,-87.8293,2.112,7.48,1111122 
DISL,ioos:station:DISL:BSCA:1,2013-02-05T00:30:00Z,30.3288,-87.8293,2.1,7.21,1111122 
DISL,ioos:station:DISL:BSCA:1,2013-02-05T01:00:00Z,30.3288,-87.8293,2.096,7.41,1111122 
DISL,ioos:station:DISL:BSCA:1,2013-02-05T01:30:00Z,30.3288,-87.8293,2.084,7.72,1111122 
DISL,ioos:station:DISL:BSCA:1,2013-02-05T02:00:00Z,30.3288,-87.8293,2.058,5.99,1111122 
DISL,ioos:station:DISL:BSCA:1,2013-02-05T02:30:00Z,30.3288,-87.8293,2.035,6.44,1111122 
DISL,ioos:station:DISL:BSCA:1,2013-02-05T03:00:00Z,30.3288,-87.8293,2.001,7.03,1111122 
DISL,ioos:station:DISL:BSCA:1,2013-02-05T03:30:00Z,30.3288,-87.8293,1.98,7.07,1111122 
DISL,ioos:station:DISL:BSCA:1,2013-02-05T04:00:00Z,30.3288,-87.8293,1.952,7.38,1111122 
DISL,ioos:station:DISL:BSCA:1,2013-02-05T04:30:00Z,30.3288,-87.8293,1.929,7.34,1111122 
DISL,ioos:station:DISL:BSCA:1,2013-02-05T05:00:00Z,30.3288,-87.8293,1.893,7.36,1111122 
DISL,ioos:station:DISL:BSCA:1,2013-02-05T05:30:00Z,30.3288,-87.8293,1.871,7.66,1111122 
DISL,ioos:station:DISL:BSCA:1,2013-02-05T06:00:00Z,30.3288,-87.8293,1.841,8.41,1111122 
DISL,ioos:station:DISL:BSCA:1,2013-02-05T06:30:00Z,30.3288,-87.8293,1.815,7.82,1111122 
DISL,ioos:station:DISL:BSCA:1,2013-02-05T07:00:00Z,30.3288,-87.8293,1.784,7.99,1111122 
DISL,ioos:station:DISL:BSCA:1,2013-02-05T07:30:00Z,30.3288,-87.8293,1.759,7.68,1111122 
DISL,ioos:station:DISL:BSCA:1,2013-02-05T08:00:00Z,30.3288,-87.8293,1.731,6.92,1111122 
DISL,ioos:station:DISL:BSCA:1,2013-02-05T08:30:00Z,30.3288,-87.8293,1.71,7.32,1111122 
DISL,ioos:station:DISL:BSCA:1,2013-02-05T09:00:00Z,30.3288,-87.8293,1.684,7.77,1111122 
DISL,ioos:station:DISL:BSCA:1,2013-02-05T09:30:00Z,30.3288,-87.8293,1.69,7.99,1111122 
DISL,ioos:station:DISL:BSCA:1,2013-02-05T10:00:00Z,30.3288,-87.8293,1.65,7.44,1111122 
DISL,ioos:station:DISL:BSCA:1,2013-02-05T10:30:00Z,30.3288,-87.8293,1.619,7.93,1111122 
DISL,ioos:station:DISL:BSCA:1,2013-02-05T11:00:00Z,30.3288,-87.8293,1.602,6.99,1111122 
DISL,ioos:station:DISL:BSCA:1,2013-02-05T11:30:00Z,30.3288,-87.8293,1.61,7.12,1111122 
DISL,ioos:station:DISL:BSCA:1,2013-02-05T12:00:00Z,30.3288,-87.8293,1.587,5.53,1111122 
DISL,ioos:station:DISL:BSCA:1,2013-02-05T12:30:00Z,30.3288,-87.8293,1.621,8.4,1111122 
DISL,ioos:station:DISL:BSCA:1,2013-02-05T13:00:00Z,30.3288,-87.8293,1.614,5.92,1111122 
DISL,ioos:station:DISL:BSCA:1,2013-02-05T13:30:00Z,30.3288,-87.8293,1.666,5.4,1111122 
DISL,ioos:station:DISL:BSCA:1,2013-02-05T14:00:00Z,30.3288,-87.8293,1.685,6.71,1111122 
DISL,ioos:station:DISL:BSCA:1,2013-02-05T14:30:00Z,30.3288,-87.8293,1.743,4.91,1111122 
DISL,ioos:station:DISL:BSCA:1,2013-02-05T15:00:00Z,30.3288,-87.8293,1.772,4.61,1111122 
DISL,ioos:station:DISL:BSCA:1,2013-02-05T15:30:00Z,30.3288,-87.8293,1.812,5.92,1111122 
DISL,ioos:station:DISL:BSCA:1,2013-02-05T16:00:00Z,30.3288,-87.8293,1.842,5.8,1111122 
DISL,ioos:station:DISL:BSCA:1,2013-02-05T16:30:00Z,30.3288,-87.8293,1.874,5.5,1111122 
DISL,ioos:station:DISL:BSCA:1,2013-02-05T17:00:00Z,30.3288,-87.8293,1.893,5.08,1111122 
DISL,ioos:station:DISL:BSCA:1,2013-02-05T17:30:00Z,30.3288,-87.8293,1.922,5.38,1111122 
DISL,ioos:station:DISL:BSCA:1,2013-02-05T18:00:00Z,30.3288,-87.8293,1.942,5.45,1111122 
DISL,ioos:station:DISL:BSCA:1,2013-02-05T18:30:00Z,30.3288,-87.8293,1.987,5.08,1111122 
DISL,ioos:station:DISL:BSCA:1,2013-02-05T19:00:00Z,30.3288,-87.8293,2.023,5.44,1111122 
DISL,ioos:station:DISL:BSCA:1,2013-02-05T19:30:00Z,30.3288,-87.8293,2.068,5.34,1111122 
DISL,ioos:station:DISL:BSCA:1,2013-02-05T20:00:00Z,30.3288,-87.8293,2.113,5.2,1111122 
DISL,ioos:station:DISL:BSCA:1,2013-02-05T20:30:00Z,30.3288,-87.8293,2.151,4.96,1111122 
DISL,ioos:station:DISL:BSCA:1,2013-02-05T21:00:00Z,30.3288,-87.8293,2.185,4.9,1111122 
DISL,ioos:station:DISL:BSCA:1,2013-02-05T21:30:00Z,30.3288,-87.8293,2.207,4.6,1111122 
DISL,ioos:station:DISL:BSCA:1,2013-02-05T22:00:00Z,30.3288,-87.8293,2.235,4.19,1111122 
DISL,ioos:station:DISL:BSCA:1,2013-02-05T22:30:00Z,30.3288,-87.8293,2.243,4.43,1111122 
DISL,ioos:station:DISL:BSCA:1,2013-02-05T23:00:00Z,30.3288,-87.8293,2.26,4.38,1111122 
DISL,ioos:station:DISL:BSCA:1,2013-02-05T23:30:00Z,30.3288,-87.8293,2.264,4.42,1111122 
DISL,ioos:station:DISL:BSCA:1,2013-02-06T00:00:00Z,30.3288,-87.8293,2.274,4.55,1111122 
DISL,ioos:station:DISL:BSCA:1,2013-02-06T00:30:00Z,30.3288,-87.8293,2.267,4.02,1111122 
DISL,ioos:station:DISL:BSCA:1,2013-02-06T01:00:00Z,30.3288,-87.8293,2.267,4.17,1111122 
DISL,ioos:station:DISL:BSCA:1,2013-02-06T01:30:00Z,30.3288,-87.8293,2.253,3.65,1111122 
DISL,ioos:station:DISL:BSCA:1,2013-02-06T02:00:00Z,30.3288,-87.8293,2.24,4.05,1111122 
DISL,ioos:station:DISL:BSCA:1,2013-02-06T02:30:00Z,30.3288,-87.8293,2.222,3.73,1111122 
DISL,ioos:station:DISL:BSCA:1,2013-02-06T03:00:00Z,30.3288,-87.8293,2.205,4.2,1111122 
DISL,ioos:station:DISL:BSCA:1,2013-02-06T03:30:00Z,30.3288,-87.8293,2.171,4.06,1111122 
DISL,ioos:station:DISL:BSCA:1,2013-02-06T04:00:00Z,30.3288,-87.8293,2.136,4.08,1111122 
DISL,ioos:station:DISL:BSCA:1,2013-02-06T04:30:00Z,30.3288,-87.8293,2.093,4.12,1111122 
DISL,ioos:station:DISL:BSCA:1,2013-02-06T05:00:00Z,30.3288,-87.8293,2.053,4.11,1111122 
DISL,ioos:station:DISL:BSCA:1,2013-02-06T05:30:00Z,30.3288,-87.8293,2.018,3.84,1111122 
DISL,ioos:station:DISL:BSCA:1,2013-02-06T06:00:00Z,30.3288,-87.8293,1.969,3.18,1111122 
DISL,ioos:station:DISL:BSCA:1,2013-02-06T06:30:00Z,30.3288,-87.8293,1.943,2.29,1111122 
DISL,ioos:station:DISL:BSCA:1,2013-02-06T07:00:00Z,30.3288,-87.8293,1.904,3.88,1111122 
DISL,ioos:station:DISL:BSCA:1,2013-02-06T07:30:00Z,30.3288,-87.8293,1.862,3.34,1111122 
DISL,ioos:station:DISL:BSCA:1,2013-02-06T08:00:00Z,30.3288,-87.8293,1.828,2.79,1111122 
DISL,ioos:station:DISL:BSCA:1,2013-02-06T08:30:00Z,30.3288,-87.8293,1.8,1.93,1111122 
DISL,ioos:station:DISL:BSCA:1,2013-02-06T09:00:00Z,30.3288,-87.8293,1.769,2.62,1111122 
DISL,ioos:station:DISL:BSCA:1,2013-02-06T09:30:00Z,30.3288,-87.8293,1.744,2.46,1111122 
DISL,ioos:station:DISL:BSCA:1,2013-02-06T10:00:00Z,30.3288,-87.8293,1.723,3.07,1111122 
DISL,ioos:station:DISL:BSCA:1,2013-02-06T10:30:00Z,30.3288,-87.8293,1.705,2.73,1111122 
DISL,ioos:station:DISL:BSCA:1,2013-02-06T11:00:00Z,30.3288,-87.8293,1.689,1.45,1111122 
DISL,ioos:station:DISL:BSCA:1,2013-02-06T11:30:00Z,30.3288,-87.8293,1.672,1.91,1111122 
DISL,ioos:station:DISL:BSCA:1,2013-02-06T12:00:00Z,30.3288,-87.8293,1.668,3.39,1111122 
DISL,ioos:station:DISL:BSCA:1,2013-02-06T12:30:00Z,30.3288,-87.8293,1.665,3.62,1111122 
DISL,ioos:station:DISL:BSCA:1,2013-02-06T13:00:00Z,30.3288,-87.8293,1.676,3.7,1111122 
DISL,ioos:station:DISL:BSCA:1,2013-02-06T13:30:00Z,30.3288,-87.8293,1.697,3.24,1111122 
DISL,ioos:station:DISL:BSCA:1,2013-02-06T14:00:00Z,30.3288,-87.8293,1.714,2.72,1111122 
DISL,ioos:station:DISL:BSCA:1,2013-02-06T14:30:00Z,30.3288,-87.8293,1.74,2.88,1111122 
DISL,ioos:station:DISL:BSCA:1,2013-02-06T15:00:00Z,30.3288,-87.8293,1.767,3.35,1111122 
DISL,ioos:station:DISL:BSCA:1,2013-02-06T15:30:00Z,30.3288,-87.8293,1.792,3.28,1111122 